This is the latest recevied weather packets stored in our database for station/object CX2SA-13. If no packets are shown the sender has not sent any weather packets the latest 10 day(s).
| Time | Temp. | Humidity | Pressure | Rain* | Wind** | Luminosity | Snow |
|---|---|---|---|---|---|---|---|
| 1777615184 | 17.78° C | 72% | 1009.1 hPa | 0 mm | - | - | - |
| 1777614285 | 17.78° C | 72% | 1009.1 hPa | 0 mm | - | - | - |
| 1777613384 | 17.22° C | 72% | 1009.4 hPa | 0 mm | - | - | - |
| 1777612485 | 17.22° C | 72% | 1009.1 hPa | 0 mm | - | - | - |
| 1777611585 | 17.22° C | 72% | 1009.1 hPa | 0 mm | - | - | - |
| 1777610684 | 17.22° C | 72% | 1009.4 hPa | 0 mm | - | - | - |
| 1777609785 | 16.67° C | 72% | 1009.4 hPa | 0 mm | - | - | - |
| 1777608886 | 16.67° C | 72% | 1009.4 hPa | 0 mm | - | - | - |
| 1777607984 | 17.22° C | 71% | 1009.8 hPa | 0 mm | - | - | - |
| 1777607085 | 17.78° C | 69% | 1009.8 hPa | 0 mm | - | - | - |
| 1777606184 | 17.78° C | 69% | 1009.8 hPa | 0 mm | - | - | - |
| 1777605284 | 17.22° C | 71% | 1009.8 hPa | 0 mm | - | - | - |
| 1777604385 | 17.22° C | 71% | 1009.8 hPa | 0 mm | - | - | - |
| 1777603484 | 17.78° C | 69% | 1010.1 hPa | 0 mm | - | - | - |
| 1777602585 | 18.33° C | 67% | 1010.5 hPa | 0 mm | - | - | - |
| 1777601685 | 18.33° C | 67% | 1010.5 hPa | 0 mm | - | - | - |
| 1777600784 | 18.33° C | 67% | 1010.5 hPa | 0 mm | - | - | - |
| 1777599885 | 18.89° C | 66% | 1010.1 hPa | 0 mm | - | - | - |
| 1777598986 | 18.89° C | 65% | 1010.1 hPa | 0 mm | - | - | - |
| 1777598084 | 19.44° C | 64% | 1010.1 hPa | 0 mm | - | - | - |
| 1777597185 | 19.44° C | 64% | 1009.8 hPa | 0 mm | - | - | - |
| 1777596286 | 19.44° C | 64% | 1009.8 hPa | 0 mm | - | - | - |
| 1777595384 | 19.44° C | 64% | 1009.8 hPa | 0 mm | - | - | - |
| 1777594485 | 19.44° C | 64% | 1009.8 hPa | 0 mm | - | - | - |
| 1777593586 | 19.44° C | 63% | 1009.8 hPa | 0 mm | - | - | - |
* Rain since midnight (hover to see other rain measurements)
** Current wind speed in m/s (hover to see current wind gust speed)